KE8BSM Weather Reports


Display with metric or nautical units.
time (UTC)temp
F
wind
direction
speed
MPH
gust
MPH
rain 1hr
in
rain 24hr
in
rain mn
in
humidity
%
barometer
mb
20260507203816 52 205 2.0 5.0 0.00 0.00 0.00 48 1011.6
20260507202816 52 203 4.0 6.0 0.00 0.00 0.00 46 1011.9
20260507201816 51 20 2.0 3.0 0.00 0.00 0.00 45 1012.0
20260507200817 51 247 3.0 6.0 0.00 0.00 0.00 45 1012.1
20260507195817 51 222 6.0 8.0 0.00 0.00 0.00 45 1012.3
20260507194817 51 186 1.0 3.0 0.00 0.00 0.00 47 1012.4
20260507193817 51 204 5.0 6.0 0.00 0.00 0.00 46 1012.4
20260507192817 50 170 3.0 6.0 0.00 0.00 0.00 46 1012.5
20260507191817 50 261 4.0 8.0 0.00 0.00 0.00 46 1012.7
20260507190817 50 37 5.0 9.0 0.00 0.00 0.00 46 1012.7
20260507185818 51 221 4.0 7.0 0.00 0.00 0.00 45 1012.7
20260507184818 51 221 6.0 8.0 0.00 0.00 0.00 48 1012.8
20260507183818 50 49 3.0 8.0 0.00 0.00 0.00 44 1012.7
20260507182815 50 12 6.0 9.0 0.00 0.00 0.00 45 1012.7
20260507181815 49 97 3.0 6.0 0.00 0.00 0.00 46 1012.7
20260507180815 50 346 3.0 5.0 0.00 0.00 0.00 44 1012.8
20260507175815 49 338 1.0 3.0 0.00 0.00 0.00 45 1012.7
20260507174815 49 239 4.0 6.0 0.00 0.00 0.00 47 1012.9
20260507173836 48 335 3.0 5.0 0.00 0.00 0.00 46 1012.9
20260507172816 48 244 1.0 3.0 0.00 0.00 0.00 48 1013.1
20260507171816 48 166 2.0 4.0 0.00 0.00 0.00 46 1013.1
20260507170816 48 2 1.0 3.0 0.00 0.00 0.00 46 1013.4
20260507165816 48 237 3.0 5.0 0.00 0.00 0.00 47 1013.6
20260507164837 48 330 4.0 8.0 0.00 0.00 0.00 47 1013.8
20260507163817 48 9 6.0 9.0 0.00 0.00 0.00 48 1013.8
20260507162817 47 23 2.0 4.0 0.00 0.00 0.00 50 1014.0
20260507161817 47 357 4.0 5.0 0.00 0.00 0.00 53 1014.2
20260507160817 47 13 4.0 7.0 0.00 0.00 0.00 52 1014.3
20260507155818 47 331 6.0 11.0 0.00 0.00 0.00 54 1014.4
20260507154837 47 1 4.0 7.0 0.00 0.00 0.00 52 1014.5
20260507153818 47 32 4.0 7.0 0.00 0.00 0.00 52 1014.5
20260507152818 47 166 4.0 6.0 0.00 0.00 0.00 52 1014.3
20260507151818 47 346 6.0 9.0 0.00 0.00 0.00 55 1014.4
20260507150818 47 255 3.0 6.0 0.00 0.00 0.00 54 1014.2
20260507145818 47 39 5.0 7.0 0.00 0.00 0.00 55 1014.0
20260507144818 47 165 3.0 6.0 0.00 0.00 0.00 55 1014.1
20260507143818 47 223 2.0 4.0 0.00 0.00 0.00 56 1014.1
20260507142818 47 338 6.0 8.0 0.00 0.00 0.00 54 1014.2
20260507141819 46 163 3.0 5.0 0.00 0.00 0.00 52 1014.2
20260507140819 46 232 4.0 7.0 0.00 0.00 0.00 54 1014.3
20260507135819 46 22 5.0 7.0 0.00 0.00 0.00 54 1014.3
20260507134819 46 257 5.0 9.0 0.00 0.00 0.00 55 1014.2
20260507133819 46 200 3.0 4.0 0.00 0.00 0.00 57 1014.2
20260507132819 45 217 3.0 4.0 0.00 0.00 0.00 58 1014.1
20260507131859 45 57 4.0 6.0 0.00 0.00 0.00 64 1014.0
20260507130819 44 26 4.0 6.0 0.00 0.00 0.00 64 1014.1
20260507125819 44 246 3.0 4.0 0.00 0.00 0.00 66 1014.0
20260507124820 43 213 3.0 4.0 0.00 0.00 0.00 70 1014.0
20260507123820 43 9 6.0 8.0 0.00 0.00 0.00 72 1013.8
20260507122820 43 264 2.0 4.0 0.00 0.00 0.00 71 1013.9
20260507121820 42 342 2.0 2.0 0.00 0.00 0.00 74 1013.8
20260507120820 42 116 1.0 3.0 0.00 0.00 0.00 75 1013.8
20260507115821 42 350 3.0 3.0 0.00 0.00 0.00 76 1013.8
20260507114820 41 234 3.0 4.0 0.00 0.00 0.00 78 1013.8
20260507113821 40 219 2.0 3.0 0.00 0.00 0.00 81 1013.7
20260507112841 40 239 1.0 2.0 0.00 0.00 0.00 81 1013.6
20260507111821 39 222 3.0 3.0 0.00 0.00 0.00 82 1013.5
20260507110821 39 245 1.0 1.0 0.00 0.00 0.00 84 1013.4
20260507105821 38 209 2.0 3.0 0.00 0.00 0.00 84 1013.2
20260507104822 38 223 0.0 1.0 0.00 0.00 0.00 85 1013.1
20260507103822 38 184 0.0 1.0 0.00 0.00 0.00 84 1013.1
20260507102822 38 187 1.0 1.0 0.00 0.00 0.00 82 1013.1
20260507101822 39 0.0 0.0 0.00 0.00 0.00 81 1013.0
20260507100822 39 0.0 0.0 0.00 0.00 0.00 81 1013.0
20260507095822 39 0.0 0.0 0.00 0.00 0.00 80 1013.0
20260507094823 39 0.0 0.0 0.00 0.00 0.00 79 1012.9
20260507093903 39 184 0.0 1.0 0.00 0.00 0.00 79 1012.9
20260507092823 40 211 1.0 1.0 0.00 0.00 0.00 77 1012.9
20260507091823 40 0.0 0.0 0.00 0.00 0.00 76 1012.9
20260507090823 41 270 1.0 1.0 0.00 0.00 0.00 74 1012.9
20260507085823 42 197 1.0 2.0 0.00 0.00 0.00 73 1013.1
20260507084843 42 243 0.0 1.0 0.00 0.00 0.00 73 1013.1
20260507083952 42 0.0 0.0 0.00 0.00 0.00 75 1013.1
20260507082835 42 234 0.0 2.0 0.00 0.00 0.00 69 1013.1
20260507081815 43 318 1.0 2.0 0.00 0.00 0.00 69 1013.1
20260507080835 43 315 0.0 1.0 0.00 0.00 0.00 68 1013.1
20260507075816 43 0.0 0.0 0.00 0.00 0.00 68 1013.3
20260507074836 43 313 1.0 2.0 0.00 0.00 0.00 69 1013.3
20260507073836 43 331 1.0 2.0 0.00 0.00 0.00 69 1013.3
20260507072816 43 0.0 0.0 0.00 0.00 0.00 68 1013.3
20260507071836 43 235 1.0 2.0 0.00 0.00 0.00 68 1013.3
20260507070816 43 293 0.0 0.0 0.00 0.00 0.00 67 1013.3
20260507065836 44 348 0.0 2.0 0.00 0.00 0.00 68 1013.3
20260507064817 44 339 0.0 2.0 0.00 0.00 0.00 68 1013.4
20260507063837 44 251 1.0 2.0 0.00 0.00 0.00 67 1013.5
20260507062817 45 324 0.0 1.0 0.00 0.00 0.00 65 1013.5
20260507061817 45 2 2.0 4.0 0.00 0.00 0.00 65 1013.5
20260507060817 45 358 1.0 2.0 0.00 0.00 0.00 65 1013.5
20260507055818 46 354 2.0 4.0 0.00 0.00 0.00 65 1013.4
20260507054818 46 42 2.0 3.0 0.00 0.00 0.00 66 1013.4
20260507053835 46 352 2.0 4.0 0.00 0.00 0.00 65 1013.5
20260507052815 46 219 3.0 7.0 0.00 0.00 0.00 66 1013.5
20260507051855 46 8 0.0 2.0 0.00 0.00 0.00 63 1013.5
20260507050815 46 276 0.0 0.0 0.00 0.00 0.00 65 1013.4
20260507045815 46 345 1.0 2.0 0.00 0.00 0.00 66 1013.4
20260507044815 46 0.0 0.0 0.00 0.00 0.00 65 1013.5
20260507043816 46 238 0.0 1.0 0.00 0.00 0.00 65 1013.4
20260507042816 46 0.0 0.0 0.00 0.00 0.00 63 1013.4
20260507041816 46 240 0.0 1.0 0.00 0.00 0.00 63 1013.4
20260507040816 46 0.0 0.0 0.00 0.00 0.00 62 1013.4
20260507035816 46 0.0 0.0 0.00 0.00 0.00 60 1013.5
20260507034816 46 0.0 0.0 0.00 0.00 0.00 60 1013.5
20260507033816 47 0.0 0.0 0.00 0.00 0.00 63 1013.5
20260507032817 47 342 2.0 3.0 0.00 0.00 0.00 61 1013.5
20260507031817 47 320 0.0 2.0 0.00 0.00 0.00 60 1013.5
20260507030817 47 0.0 0.0 0.00 0.00 0.00 58 1013.6
20260507025817 48 0.0 0.0 0.00 0.00 0.00 58 1013.6
20260507024817 48 340 1.0 2.0 0.00 0.00 0.00 58 1013.6
20260507023837 48 222 0.0 0.0 0.00 0.00 0.00 54 1013.6
20260507022817 48 335 1.0 2.0 0.00 0.00 0.00 55 1013.6
20260507021818 49 0.0 0.0 0.00 0.00 0.00 53 1013.5
20260507020838 49 0.0 0.0 0.00 0.00 0.00 54 1013.4
20260507020018 0 224 0.0 0.0 0.00 0.00 0.00
20260507014815 49 305 0.0 1.0 0.00 0.00 0.00 51 1013.2
20260507013815 49 0.0 0.0 0.00 0.00 0.00 51 1013.1
20260507012816 49 201 0.0 2.0 0.00 0.00 0.00 50 1013.1
20260507011816 50 0.0 0.0 0.00 0.00 0.00 51 1013.1
20260507010816 50 0.0 0.0 0.00 0.00 0.00 50 1013.1
20260507005817 50 0.0 0.0 0.00 0.00 0.00 49 1013.1
20260507004816 50 211 1.0 2.0 0.00 0.00 0.00 47 1013.0
20260507003916 50 256 1.0 3.0 0.00 0.00 0.00 46 1013.0
20260507002817 50 253 1.0 3.0 0.00 0.00 0.00 50 1013.0
20260507001836 50 63 1.0 2.0 0.00 0.00 0.00 44 1012.8
20260507000817 50 185 1.0 3.0 0.00 0.00 0.00 45 1012.7
20260506235817 51 227 2.0 3.0 0.00 0.00 0.00 48 1012.6
20260506234817 51 216 4.0 7.0 0.00 0.00 0.00 45 1012.7
20260506233817 51 317 1.0 2.0 0.00 0.00 0.00 47 1012.7
20260506232838 51 9 2.0 3.0 0.00 0.00 0.00 43 1012.7
20260506231817 51 223 3.0 6.0 0.00 0.00 0.00 44 1012.7
20260506230835 51 249 2.0 4.0 0.00 0.00 0.00 43 1012.7
20260506225818 52 169 2.0 3.0 0.00 0.00 0.00 44 1012.6
20260506224818 52 217 2.0 5.0 0.00 0.00 0.00 43 1012.6
20260506223815 53 222 2.0 4.0 0.00 0.00 0.00 43 1012.7
20260506222816 54 14 4.0 7.0 0.00 0.00 0.00 41 1012.6
20260506221816 54 36 2.0 4.0 0.00 0.00 0.00 40 1012.5
20260506220816 55 313 3.0 6.0 0.00 0.00 0.00 40 1012.5
20260506215836 55 231 1.0 4.0 0.00 0.00 0.00 41 1012.4
20260506214816 54 41 3.0 5.0 0.00 0.00 0.00 40 1012.5
20260506213816 54 23 4.0 8.0 0.00 0.00 0.00 43 1012.5
20260506212817 54 123 3.0 5.0 0.00 0.00 0.00 41 1012.4
20260506211837 54 324 4.0 8.0 0.00 0.00 0.00 42 1012.5
20260506210817 54 196 5.0 8.0 0.00 0.00 0.00 40 1012.5
20260506205817 54 62 4.0 9.0 0.00 0.00 0.00 42 1012.5
20260506204837 54 290 5.0 8.0 0.00 0.00 0.00 41 1012.5